Home > Weather > Barysaw > Past weeks

Flag for Belarus Past Weather in Barysaw, Belarus — Yesterday and Last 2 Weeks

Now
77 °F

Partly sunny.


Feels Like: 79 °F
Forecast: 60 / 81 °F
Wind: 8 mph from West

Location: Minsk

Current Time: Jul 30, 2016 at 4:16:08 PM

Latest Report: Jul 30, 2016 at 3:30 PM


Visibility: N/A

Pressure: 29.89 "Hg

Humidity: 57%

Dew Point: 61 °F

Location of BarysawLocation

Past Weather in Barysaw — Graph

°F

Barysaw Temperature Yesterday

Maximum temperature yesterday: 82 °F (at 3:00 PM)
Minimum temperature yesterday: 64 °F (at 8:30 PM)
Average temperature yesterday: 73 °F

High & Low Weather Summary for the Past Weeks

 TemperatureHumidityPressure
High86 °F (Jul 28, 2:00 PM)100% (Jul 16, 1:00 AM)30.15 "Hg (Jul 16, 1:00 AM)
Low46 °F (Jul 22, 4:30 AM)39% (Jul 17, 5:30 PM)29.59 "Hg (Jul 21, 8:30 AM)
Average67 °F78%29.94 "Hg
* Reported Jul 15 3:00 PM — Jul 30 3:00 PM, Barysaw, Weather by CustomWeather, © 2016

Note: Actual official high and low records may vary slightly from our data, if they occured in-between our weather recording intervals... More about our weather records

Advertising

Barysaw Weather History for the Previous 24 Hours

Scroll right to see more
 ConditionsComfort  
Time TempWeatherWind HumidityBarometerVisibility
3:00 PM
Sat, Jul 30
75 °FPartly sunny.8 mph61%29.89 "HgN/A
2:30 PM75 °FBroken clouds.8 mph61%29.89 "HgN/A
2:00 PM75 °FBroken clouds.8 mph61%29.89 "HgN/A
1:30 PM73 °FBroken clouds.10 mph65%29.89 "HgN/A
1:00 PM72 °FPartly sunny.10 mph73%29.89 "HgN/A
12:30 PM70 °FPartly sunny.13 mph78%29.89 "HgN/A
12:00 PM72 °FPartly sunny.10 mph73%29.89 "HgN/A
11:30 AM72 °FPartly sunny.8 mph78%29.89 "HgN/A
11:00 AM70 °FPartly sunny.6 mph78%29.89 "HgN/A
10:30 AM70 °FPartly sunny.6 mph73%29.89 "HgN/A
10:00 AM70 °FPartly sunny.8 mph78%29.89 "HgN/A
9:30 AM68 °FPartly sunny.6 mph83%29.89 "HgN/A
9:00 AM68 °FPartly sunny.6 mph83%29.89 "HgN/A
8:30 AM64 °FPartly sunny.1 mph94%29.89 "HgN/A
8:00 AM64 °FPartly sunny.3 mph94%29.89 "HgN/A
7:30 AM64 °FPartly sunny.1 mph94%29.86 "HgN/A
7:00 AM63 °FPartly sunny.1 mph94%29.86 "HgN/A
6:30 AM63 °FPartly sunny.6 mph94%29.86 "HgN/A
6:00 AM63 °FPassing clouds.3 mph94%29.86 "HgN/A
5:54 AM63 °FPassing clouds.3 mph94%29.86 "HgN/A
5:30 AM63 °FPassing clouds.3 mph94%29.86 "HgN/A
5:00 AM63 °FPassing clouds.8 mph94%29.83 "HgN/A
4:30 AM64 °FPartly cloudy.6 mph94%29.83 "HgN/A
4:00 AM64 °FPartly cloudy.3 mph100%29.83 "Hg6 mi
3:30 AM66 °FPartly cloudy.6 mph94%29.83 "Hg6 mi
3:00 AM66 °FPartly cloudy.3 mph94%29.80 "Hg4 mi
2:30 AM64 °FFog.3 mph100%29.80 "Hg3 mi
2:04 AM64 °FFog.3 mph100%29.80 "Hg1 mi
2:00 AM64 °FFog.3 mph100%29.80 "Hg1 mi
1:30 AM64 °FPassing clouds.3 mph100%29.80 "HgN/A
1:00 AM64 °FPassing clouds.3 mph100%29.80 "HgN/A
12:30 AM64 °FPartly cloudy.1 mph100%29.80 "HgN/A
12:00 AM64 °FPartly cloudy.3 mph100%29.80 "HgN/A
11:54 PM
Fri, Jul 29
64 °FPassing clouds.6 mph94%29.80 "HgN/A
11:30 PM64 °FPassing clouds.3 mph94%29.80 "HgN/A
11:00 PM64 °FPartly cloudy.3 mph94%29.80 "HgN/A
10:30 PM64 °FPassing clouds.3 mph94%29.80 "HgN/A
10:00 PM64 °FBroken clouds.6 mph94%29.83 "HgN/A
9:30 PM64 °FSprinkles. Broken clouds.1 mph94%29.83 "HgN/A
9:00 PM64 °FThundershowers. Broken clouds.3 mph94%29.83 "HgN/A
8:54 PM64 °FThundershowers. Partly sunny.6 mph94%29.83 "HgN/A
8:30 PM64 °FThunderstorms. Partly sunny.6 mph94%29.83 "Hg3 mi
8:04 PM73 °FThunderstorms. Partly sunny.15 mph65%29.83 "Hg2 mi
8:00 PM73 °FStrong thunderstorms. Partly sunny.17 mph65%29.83 "Hg0 mi
7:52 PM81 °FPartly sunny.3 mph58%29.80 "HgN/A
7:30 PM81 °FSunny.1 mph58%29.80 "Hg10 mi
7:00 PM81 °FBroken clouds.3 mph54%29.80 "HgN/A
6:30 PM82 °FBroken clouds.6 mph51%29.80 "HgN/A
6:00 PM82 °FPartly sunny.6 mph55%29.80 "HgN/A
5:30 PM82 °FPartly sunny.6 mph55%29.80 "HgN/A
5:00 PM82 °FPartly sunny.6 mph51%29.83 "HgN/A
4:30 PM82 °FPassing clouds.3 mph55%29.83 "HgN/A
4:00 PM82 °FPartly sunny.6 mph58%29.83 "HgN/A
Weather by CustomWeather, © 2016

See weather overviewHow to use our weather pages